カタログに戻る

USA 144 DEB

運用中MEO
NORAD 25746·DEBRIS·🇺🇸 United States

打ち上げ May 22, 1999 から Vandenberg Space Force Base

Loading…

次のパス (今後24時間)

TLE

古いSource: Mike McCants

元期: Jul 19, 2026, 21:13 UTC

1 25746U 99028C   26200.88435172 0.00000000  00000-0  00000-0 0    03
2 25746  63.4359 102.9437 0280910 303.6938  56.3062  9.70083779    06

AllMySatでUSA 144 DEBをリアルタイム追跡

Download on the App Store